[[{"header":{"parameterUnit":"m.s-1","parameterCategory":1,"la1":30.2991,"la2":30.254,"lo1":-89.0895,"lo2":-89.0444,"dy":0.0017,"dx":0.0017,"nx":28,"ny":28,"refTime":"2024-05-29T09:00:00:Z","depth":0,"parameterNumber":2,"parameterNumberName":"U-component_of_WINDS"},"data":[0,0,0,0,0,0,0,0,0,0,0,0,0,0,0,0,0,0,0,0,0,0,0,0,0,0,0,0,0,0,0,0,0,0,0,0,0,0,0,0,0,0,0,0,0,0,0,0,0,0,0,0,0,0,0,0,0,0,-4.6452,-4.6452,0,-4.6429,-4.6429,-4.6429,-4.6312,-4.6309,-4.6306,-4.6304,-4.6284,-4.6286,-4.6288,0,0,0,0,0,0,0,0,0,0,0,0,0,-4.6398,-4.64,-4.6452,-4.6452,-4.6451,-4.643,-4.6429,-4.6429,-4.6312,-4.6309,-4.6306,-4.6302,-4.6283,-4.6286,-4.6288,0,0,0,0,0,0,0,0,0,0,0,0,0,-4.6404,-4.6401,-4.6452,-4.639,-4.6385,-4.643,-4.6429,-4.6429,-4.6313,-4.6309,-4.6305,-4.6301,-4.6282,-4.6285,-4.6288,-4.6392,0,0,-4.6298,-4.6299,0,0,0,0,0,0,0,0,-4.6404,-4.6406,-4.64,-4.6395,-4.6388,-4.6369,-4.6403,-4.6416,-4.6314,-4.634,-4.6304,-4.6299,-4.6316,-4.6316,-4.6321,-4.6391,-4.639,-4.6298,-4.63,-4.6301,-4.6302,0,0,0,0,0,0,0,-4.6403,-4.6406,-4.6443,-4.64,-4.6393,-4.6366,-4.6362,-4.6405,-4.6352,-4.6338,-4.6329,-4.6328,-4.6312,-4.6318,-4.632,-4.639,-4.6298,-4.6301,-4.6303,-4.6304,-4.6546,-4.655,0,0,0,0,0,0,-4.6411,-4.6407,-4.6444,-4.6442,-4.6386,-4.637,-4.6366,-4.638,-4.6351,-4.6343,-4.6332,-4.6323,-4.6315,-4.6316,-4.6319,-4.6439,-4.6301,-4.6304,-4.6306,-4.6541,-4.6547,-4.6552,0,0,0,0,0,0,-4.641,-4.6415,-4.6445,-4.6422,-4.6424,-4.6375,-4.6392,-4.6381,-4.6387,-4.6346,-4.6337,-4.6348,-4.6312,-4.6314,-4.6375,-4.6436,-4.6306,-4.6309,-4.6536,-4.6543,-4.6549,-4.6679,0,0,0,0,0,0,-4.6409,-4.6416,-4.6453,-4.6424,-4.6425,-4.65,-4.6396,-4.6384,-4.6393,-4.6381,-4.6359,-4.6351,-4.6309,-4.6371,-4.6378,-4.6438,-4.6311,-4.653,-4.6539,-4.6547,-4.6669,-4.669,-4.6707,0,0,0,0,0,-4.6408,-4.649,-4.6455,-4.6461,-4.6471,-4.6504,-4.6505,-4.6453,-4.6398,-4.6436,-4.6411,-4.6352,-4.6429,-4.6378,-4.6385,-4.6447,-4.6526,-4.6537,-4.6547,-4.6661,-4.6686,-4.6707,0,0,0,0,0,0,-4.6528,-4.6485,-4.6446,-4.6521,-4.6517,-4.6484,-4.6529,-4.6481,-4.6492,-4.6481,-4.6418,-4.6414,-4.6484,-4.6472,-4.6416,-4.6547,-4.6468,-4.648,-4.6552,-4.6576,-4.6594,-4.6595,-4.6314,0,0,0,0,0,-4.6564,-4.6593,-4.6554,-4.6625,-4.6624,-4.6578,-4.659,-4.6552,-4.6545,-4.6542,-4.6521,-4.6518,-4.6541,-4.6558,-4.6577,-4.6668,-4.6662,-4.6715,-4.6734,-4.6749,-4.676,-4.681,-4.6833,-4.6586,-4.6585,-4.6585,0,0,-4.6637,-4.6617,-4.6639,-4.6648,-4.664,-4.6674,-4.6577,-4.6615,-4.664,-4.6548,-4.6604,-4.6589,-4.6582,-4.6658,-4.6691,-4.665,-4.6828,-4.6762,-4.6775,-4.6778,-4.6823,-4.6846,-4.6867,-4.6593,-4.6591,-4.659,0,0,-4.6787,-4.6774,-4.6832,-4.6827,-4.6816,-4.6785,-4.68,-4.6775,-4.6761,-4.6816,-4.6749,-4.6779,-4.682,-4.6818,-4.6822,-4.6977,-4.6924,-4.6985,-4.7084,-4.7133,-4.7152,-4.7169,-4.7225,-4.7246,-4.6996,-4.6997,-4.6997,0,-4.6879,-4.6924,-4.6869,-4.6912,-4.6919,-4.6839,-4.6898,-4.6896,-4.6893,-4.6901,-4.6855,-4.6907,-4.6897,-4.6973,-4.7011,-4.7017,-4.7033,-4.6986,-4.7154,-4.717,-4.7185,-4.7238,-4.7259,-4.7004,-4.7003,-4.7003,-4.7002,0,-4.7039,-4.7073,-4.7121,-4.712,-4.7133,-4.7185,-4.7139,-4.7159,-4.7121,-4.7096,-4.7155,-4.714,-4.7155,-4.7171,-4.7133,-4.7243,-4.7218,-4.7165,-4.7083,-4.7217,-4.7266,-4.7286,-4.7015,-4.7012,-4.701,-4.7008,0,0,-4.7261,-4.7231,-4.725,-4.7249,-4.7234,-4.7259,-4.7309,-4.7324,-4.7344,-4.7346,-4.7387,-4.7426,-4.7377,-4.7382,-4.7344,-4.7388,-4.7513,-4.7328,-4.7327,-4.7364,-4.7635,-4.7675,-4.7699,-4.7479,-4.7482,-4.7485,-4.7636,0,-4.7405,-4.7486,-4.7439,-4.7528,-4.7559,-4.7486,-4.7529,-4.7526,-4.7505,-4.753,-4.7508,-4.7536,-4.7469,-4.7472,-4.7512,-4.7489,-4.7566,-4.7478,-4.7518,-4.752,-4.7521,-4.7724,-4.7766,-4.7909,-4.7654,-4.7658,-4.766,0,-4.7582,-4.7592,-4.7684,-4.7666,-4.7677,-4.7717,-4.7729,-4.7753,-4.7749,-4.7731,-4.774,-4.7692,-4.7742,-4.7664,-4.7732,-4.7673,-4.7687,-4.768,-4.7684,-4.7685,-4.7597,-4.7731,-4.7953,-4.7975,-4.7689,-4.7687,-4.7685,0,-4.7736,-4.7772,-4.7833,-4.7835,-4.7814,-4.7844,-4.7837,-4.7829,-4.7842,-4.7854,-4.7862,-4.788,-4.789,-4.7905,-4.7865,-4.7811,-4.7941,-4.7858,-4.7928,-4.7929,-4.7957,-4.7956,-4.8184,-4.7968,-4.7967,-4.7967,-4.7967,0,-4.79,-4.796,-4.7901,-4.7938,-4.8004,-4.7952,-4.8018,-4.8004,-4.7998,-4.8033,-4.7971,-4.8005,-4.795,-4.798,-4.7949,-4.8012,-4.8017,-4.8005,-4.7996,-4.801,-4.8011,-4.8017,-4.8006,-4.7973,-4.7971,-4.797,-4.7969,0,-4.8081,-4.8044,-4.8106,-4.8082,-4.8078,-4.8128,-4.8108,-4.8143,-4.8119,-4.8164,-4.8172,-4.8135,-4.8167,-4.8129,-4.8158,-4.8137,-4.8223,-4.8199,-4.8224,-4.8217,-4.829,-4.8284,-4.8529,-4.856,-4.8324,-4.8326,-4.8328,0,-4.8188,-4.8232,-4.8215,-4.8233,-4.823,-4.8261,-4.8274,-4.8226,-4.8243,-4.8244,-4.828,-4.8306,-4.8325,-4.838,-4.8357,-4.8379,-4.8356,-4.8441,-4.8359,-4.8372,-4.8358,-4.8355,-4.836,-4.8457,-4.846,-4.8462,-4.8464,0,-4.8383,-4.8363,-4.8385,-4.8402,-4.842,-4.8431,-4.8437,-4.8457,-4.8406,-4.843,-4.8461,-4.8476,-4.8506,-4.8534,-4.8551,-4.8546,-4.8498,-4.8491,-4.8508,-4.8522,-4.8535,-4.853,-4.8269,-4.8484,-4.8482,-4.8481,-4.848,-4.8479,-4.853,-4.8566,-4.856,-4.8588,-4.8588,-4.8596,-4.8628,-4.861,-4.8635,-4.8655,-4.8626,-4.8667,-4.8665,-4.8682,-4.8683,-4.8716,-4.8679,-4.8705,-4.8711,-4.8718,-4.8729,-4.8531,-4.8719,-4.8718,-4.8717,-4.8717,-4.8716,0,-4.8721,-4.8714,-4.874,-4.8752,-4.8774,-4.8727,-4.8733,-4.8755,-4.8791,-4.8794,-4.8814,-4.8853,-4.8881,-4.8861,-4.8885,-4.8915,-4.8894,-4.8923,-4.892,-4.892,-4.876,-4.8742,-4.894,-4.894,-4.894,-4.894,-4.894,-4.894,-4.8823,-4.8883,-4.8864,-4.8925,-4.8918,-4.8957,-4.8965,-4.8973,-4.8975,-4.902,-4.9043,-4.9031,-4.9025,-4.9049,-4.9074,-4.9068,-4.908,-4.9117,-4.9103,-4.8953,-4.8931,-4.891,-4.8893,-4.912,-4.912,-4.9261,-4.9262,-4.9263]},{"header":{"parameterUnit":"m.s-1","parameterCategory":1,"la1":30.2991,"la2":30.254,"lo1":-89.0895,"lo2":-89.0444,"dy":0.0017,"dx":0.0017,"nx":28,"ny":28,"refTime":"2024-05-29T09:00:00:Z","depth":0,"parameterNumber":3,"parameterNumberName":"V-component_of_WINDS"},"data":[0,0,0,0,0,0,0,0,0,0,0,0,0,0,0,0,0,0,0,0,0,0,0,0,0,0,0,0,0,0,0,0,0,0,0,0,0,0,0,0,0,0,0,0,0,0,0,0,0,0,0,0,0,0,0,0,0,0,1.9518,1.9517,0,1.9462,1.9461,1.9461,1.9474,1.9475,1.9477,1.9478,1.9414,1.9411,1.9408,0,0,0,0,0,0,0,0,0,0,0,0,0,1.9633,1.9631,1.9518,1.9517,1.9517,1.9462,1.9461,1.946,1.9474,1.9475,1.9477,1.9478,1.9415,1.9411,1.9408,0,0,0,0,0,0,0,0,0,0,0,0,0,1.958,1.963,1.9518,1.9517,1.9516,1.9462,1.9461,1.946,1.9474,1.9475,1.9477,1.9479,1.9416,1.9412,1.9408,1.9349,0,0,1.9395,1.9393,0,0,0,0,0,0,0,0,1.9583,1.9576,1.9518,1.9517,1.9516,1.9477,1.9478,1.9423,1.9473,1.949,1.9478,1.948,1.9433,1.9428,1.9413,1.9346,1.9343,1.9395,1.9392,1.9391,1.9389,0,0,0,0,0,0,0,1.9587,1.9579,1.9496,1.9517,1.9516,1.9518,1.9512,1.9468,1.9452,1.9488,1.9489,1.9483,1.9433,1.9417,1.9412,1.9342,1.9395,1.9391,1.9389,1.9387,1.9225,1.9223,0,0,0,0,0,0,1.9592,1.9582,1.9497,1.9494,1.9555,1.9515,1.9508,1.9488,1.9453,1.945,1.9482,1.9484,1.9423,1.9417,1.941,1.9339,1.9391,1.9387,1.9384,1.9227,1.9225,1.9223,0,0,0,0,0,0,1.9595,1.9585,1.95,1.9538,1.9528,1.9511,1.9488,1.9486,1.947,1.9448,1.9445,1.9469,1.9424,1.9415,1.9365,1.9336,1.9385,1.9381,1.9229,1.9226,1.9224,1.9196,0,0,0,0,0,0,1.9598,1.9585,1.9564,1.9538,1.9525,1.9457,1.9486,1.9483,1.9464,1.9466,1.9435,1.9431,1.9425,1.9371,1.9361,1.9332,1.9378,1.9232,1.9228,1.9225,1.9199,1.9193,1.9187,0,0,0,0,0,1.9602,1.9556,1.9562,1.9552,1.9498,1.9455,1.9448,1.9443,1.9462,1.9439,1.9425,1.9432,1.9342,1.9365,1.9354,1.9324,1.9233,1.9229,1.9225,1.9202,1.9194,1.9187,0,0,0,0,0,0,1.9576,1.9553,1.9559,1.9504,1.9482,1.9458,1.9429,1.9435,1.9405,1.9408,1.9402,1.9395,1.9343,1.9329,1.9355,1.9266,1.929,1.9283,1.9276,1.9269,1.9263,1.9266,1.9375,0,0,0,0,0,1.9565,1.9534,1.9514,1.9468,1.9457,1.9445,1.9426,1.9425,1.94,1.939,1.9373,1.9347,1.9313,1.929,1.9258,1.9199,1.9191,1.9172,1.9166,1.9161,1.9154,1.9122,1.9113,1.9209,1.9209,1.9209,0,0,1.954,1.9523,1.9503,1.9462,1.9445,1.9411,1.9436,1.9399,1.9374,1.9384,1.9335,1.9322,1.9293,1.9238,1.9213,1.9224,1.9127,1.9156,1.9152,1.9148,1.9117,1.9108,1.9099,1.9206,1.9207,1.9207,0,0,1.9477,1.9462,1.9421,1.9404,1.9379,1.9372,1.9362,1.9338,1.933,1.9282,1.9289,1.9258,1.92,1.9179,1.9161,1.9094,1.9099,1.9083,1.905,1.9018,1.901,1.9004,1.8978,1.8969,1.9077,1.9077,1.9077,0,1.9448,1.9399,1.9399,1.9362,1.9344,1.9355,1.9313,1.9296,1.926,1.9247,1.9261,1.9189,1.9171,1.9111,1.9095,1.908,1.9068,1.9085,1.9012,1.9005,1.8999,1.8974,1.8965,1.9076,1.9076,1.9076,1.9076,0,1.9364,1.933,1.9301,1.9269,1.9247,1.9208,1.9201,1.918,1.9182,1.9173,1.9124,1.9103,1.9066,1.9053,1.9053,1.8993,1.9001,1.9014,1.9038,1.8988,1.8965,1.8956,1.9073,1.9074,1.9074,1.9075,0,0,1.9279,1.9251,1.924,1.9226,1.92,1.9173,1.9135,1.9102,1.9083,1.9059,1.9025,1.8978,1.899,1.897,1.8968,1.8941,1.8888,1.8957,1.8956,1.8943,1.882,1.8808,1.8798,1.8893,1.8891,1.889,1.8821,0,1.9212,1.9147,1.9147,1.9086,1.9054,1.9066,1.9033,1.9013,1.9004,1.8975,1.8966,1.8931,1.8951,1.8939,1.8913,1.89,1.8862,1.8905,1.8859,1.8858,1.8864,1.8786,1.8774,1.871,1.8813,1.8811,1.881,0,1.9125,1.9101,1.9037,1.9017,1.9004,1.8974,1.8944,1.8917,1.8895,1.8891,1.887,1.8873,1.8833,1.8861,1.8805,1.8834,1.8816,1.8807,1.8805,1.8798,1.8829,1.8775,1.869,1.868,1.8796,1.8797,1.8798,0,1.9067,1.9019,1.8975,1.8963,1.8939,1.8918,1.8906,1.8886,1.8867,1.8841,1.8828,1.8798,1.878,1.8756,1.875,1.8771,1.8694,1.8721,1.8688,1.8688,1.8668,1.8669,1.8576,1.866,1.866,1.8661,1.8661,0,1.8991,1.8951,1.8949,1.8921,1.8877,1.8879,1.8834,1.8824,1.8807,1.8777,1.8785,1.8756,1.8753,1.8723,1.8718,1.8672,1.8664,1.8659,1.8657,1.8656,1.8657,1.8642,1.8646,1.8658,1.8659,1.8659,1.866,0,1.8918,1.8915,1.8868,1.8851,1.8846,1.8814,1.8798,1.8771,1.8766,1.8728,1.8719,1.8708,1.8674,1.8668,1.8626,1.8623,1.8567,1.8572,1.8575,1.8575,1.8541,1.8543,1.8434,1.8419,1.8515,1.8514,1.8513,0,1.8868,1.8838,1.8819,1.8801,1.879,1.876,1.8741,1.8742,1.8722,1.8696,1.8672,1.8639,1.8612,1.8556,1.8544,1.8512,1.8514,1.8479,1.8509,1.851,1.8512,1.8513,1.8509,1.8471,1.847,1.8469,1.8469,0,1.878,1.8781,1.8755,1.8728,1.8707,1.8685,1.8665,1.8649,1.8648,1.8625,1.8591,1.8571,1.853,1.8496,1.8466,1.8452,1.8459,1.846,1.845,1.8447,1.845,1.8447,1.8557,1.8461,1.8462,1.8463,1.8463,1.8463,1.8715,1.869,1.8673,1.8643,1.863,1.8611,1.8586,1.8578,1.8551,1.8519,1.8522,1.8484,1.8464,1.8423,1.8409,1.8379,1.839,1.8376,1.8372,1.8368,1.8364,1.8458,1.8373,1.8373,1.8373,1.8374,1.8374,0,1.8626,1.8617,1.859,1.8563,1.854,1.8554,1.8533,1.8512,1.8479,1.8461,1.8436,1.8397,1.8366,1.8353,1.8321,1.8299,1.8302,1.8291,1.8291,1.8288,1.8356,1.8367,1.829,1.829,1.829,1.829,1.829,1.829,1.8576,1.8533,1.8533,1.8483,1.8474,1.8439,1.8426,1.8409,1.8394,1.8351,1.8326,1.8319,1.8303,1.8271,1.8242,1.8239,1.8226,1.8213,1.8211,1.8275,1.8283,1.8291,1.8301,1.8211,1.8211,1.8145,1.8145,1.8144]}]]